Regional Weather Roundup
Issued by NWS

Home | Current Version | Previous Version | Graphics & Text | Print | Product List | Glossary Off
Versions: 1 2 3 4 5 6 7 8 9 10 11 12 13 14 15 16 17 18 19 20 21 22 23 24 25 26 27 28 29 30 31 32 33 34 35 36 37 38 39 40 41 42 43 44 45 46 47 48 49 50

000
ASUS43 KMKX 210300
RWRWI

WISCONSIN REGIONAL WEATHER ROUNDUP
NATIONAL WEATHER SERVICE MILWAUKEE/SULLIVAN WI
1000 PM CDT SUN AUG 20 2017

NOTE: "FAIR" INDICATES FEW OR NO CLOUDS BELOW 12,000 FEET WITH NO
SIGNIFICANT WEATHER AND/OR OBSTRUCTIONS TO VISIBILITY.

WIZ001-002-006>008-014>016-023>028-210400-
NORTHWEST WISCONSIN

CITY           SKY/WX    TMP DP  RH WIND       PRES   REMARKS
SUPERIOR ARPT    N/A     61  58  92 W5        30.00S
ASHLAND        CLEAR     66  58  75 W6        30.01R
HAYWARD        CLOUDY    67  63  87 CALM      30.03R
SIREN          PTCLDY    67  62  82 N3        30.02R
CUMBERLAND     CLOUDY    70  64  83 CALM      30.02R
RICE LAKE      CLOUDY    71  67  87 CALM      30.03R
CHETEK           N/A     73  69  88 CALM      30.02R
LADYSMITH      CLOUDY    72  69  91 CALM      30.03R
EAU CLAIRE     NOT AVBL
MENOMONIE      CLOUDY    75  70  83 CALM      30.01R
NEW RICHMOND   CLEAR     67  62  83 N3        30.01R
OSCEOLA        CLEAR     68  63  82 CALM      30.03R
$$

WIZ003>005-009-010-017-018-210400-
NORTH CENTRAL WISCONSIN

CITY           SKY/WX    TMP DP  RH WIND       PRES   REMARKS
MANITOWISH WTR CLOUDY    66  66 100 CALM      30.02R
ARBOR VITAE    PTCLDY    72  69  92 CALM      30.02R
WOODRUFF       PTCLDY    72  69  92 CALM      30.02R
RHINELANDER    CLOUDY    70  68  93 CALM      30.02R
EAGLE RIVER    PTCLDY    71  68  93 W5        30.01R
LAND O LAKES   CLOUDY    69  66  89 CALM      30.03R
PHILLIPS       PTCLDY    67  67 100 CALM      30.01R
TOMAHAWK         N/A     68  65  91 CALM      30.02R
MEDFORD        CLEAR     68  64  88 S5        30.02R
MERRILL        CLOUDY    70  66  88 CALM      30.02R
$$

WIZ029-030-035-036-043>047-210400-
CENTRAL WISCONSIN

CITY           SKY/WX    TMP DP  RH WIND       PRES   REMARKS
WAUSAU         CLOUDY    72  66  81 SW6       30.00R
MOSINEE        PTCLDY    72  66  83 S9        30.02S
MARSHFIELD     CLOUDY    72  65  78 S8        30.02R
STEVENS POINT  PTCLDY    70  66  86 S6        30.03R
WAUPACA        PTCLDY    73  69  86 SW5       30.03R
WAUTOMA        CLEAR     70  67  90 S5        30.04R
WISC RAPIDS    CLOUDY    72  67  84 W3        30.04R
CAMP DOUGLAS   CLEAR     70  67  90 S6        30.03R
$$

WIZ011>013-019>022-031-037>040-048>050-210400-
NORTHEAST WISCONSIN

CITY           SKY/WX    TMP DP  RH WIND       PRES   REMARKS
ANTIGO         CLOUDY    70  66  87 SW5       30.03R
SHAWANO        MOCLDY    75  66  75 SW3       30.00R
OCONTO         PTCLDY    73  67  84 SW6       29.99R
STURGEON BAY   CLEAR     71  68  90 SW9       30.00R
GREEN BAY      CLEAR     71  69  93 SW6       30.01R
MANITOWOC      NOT AVBL
APPLETON       MOCLDY    72  64  78 SW8       30.01R
CLINTONVILLE   CLEAR     70  64  83 SW5       30.01R
OSHKOSH        CLEAR     72  67  84 S6        30.02R
$$

WIZ032>034-041-042-053>061-210400-
SOUTHWEST WISCONSIN

CITY           SKY/WX    TMP DP  RH WIND       PRES   REMARKS
LA CROSSE      PTCLDY    79  67  66 S10       30.01R HX  81
SPARTA         MOCLDY    67  65  93 CALM      30.05R
VIROQUA        PTCLDY    69  66  90 CALM      30.05R
BOSCOBEL       CLEAR     67  65  93 CALM      30.04R
PRAIRIE DU CHI CLEAR     69  63  79 CALM      30.01R
PLATTEVILLE    CLEAR     67  67  99 NE3       30.03S
$$

WIZ056-057-062-063-064-067-068-210400-
SOUTH CENTRAL WISCONSIN

CITY           SKY/WX    TMP DP  RH WIND       PRES   REMARKS
REEDSBURG      CLEAR     70  69  96 CALM      30.03R
BARABOO/DELLS  CLEAR     68  65  89 CALM      30.04R
LONE ROCK      NOT AVBL
MINERAL POINT  CLEAR     70  70 100 SE3       30.04S
MADISON        CLEAR     70  68  93 CALM      30.03S
MIDDLETON      CLEAR     66  66 100 CALM      30.04S
WATERTOWN      CLEAR     66  66 100 CALM      30.03S
MONROE         CLEAR     70  64  83 CALM      30.03F
JANESVILLE     CLOUDY    72  72 100 SE5       30.02S
$$

WIZ051-052-058>065-066-070>072-210400-
SOUTHEAST WISCONSIN

CITY           SKY/WX    TMP DP  RH WIND       PRES   REMARKS
MILWAUKEE      PTCLDY    72  65  78 SE5       30.03S
WAUKESHA       NOT AVBL
MILWAUKEE/TIMM CLEAR     73  61  64 S5        30.05R
RACINE         PTCLDY    73  68  84 CALM      30.05S
KENOSHA        CLOUDY    72  67  84 CALM      30.04S
FOND DU LAC    CLEAR     70  66  87 W3        30.03R
SHEBOYGAN      CLEAR     68  68 100 S3        30.02S
WEST BEND      CLEAR     66  66 100 CALM      30.04R FOG
JUNEAU         CLEAR     69  66  90 CALM      30.05R
$$

LSZ147-162-210400-
LAKE SUPERIOR

STATION/POSITION TIME  TEMP    WIND        PRES    WAVE
                       AIR SEA DIR/SP/G            HT/PER
                 (UTC) (F)     (DEG/KT/KT) (MB)    (FT/S)
W MID LAKE BUOY  0150   64 60  270/ 10/ 10 1013.0R   2/ 4
DEVILS ISLAND    0200   69     270/ 15/ 16 1014.4R
SAXON HARBOR     0230   71     240/  3/  6 1014.9R
$$

LMZ867-665-643>646-210400-
LAKE MICHIGAN

STATION/POSITION TIME  TEMP    WIND        PRES    WAVE
                       AIR SEA DIR/SP/G            HT/PER
                 (UTC) (F)     (DEG/KT/KT) (MB)    (FT/S)
S GREEN BAY BUOY 0230   74 72  210/ 10/ 14 1014.9R
N MID LAKE BUOY  0150   69 67  200/ 17/ 19 1014.7R   4/ 5
NORTHPORT PIER   0240   71     170/  5/  8 1014.6R
KEWAUNEE LAKESHO 0230   73     210/  8/ 12 1015.0R
SHEBOYGAN LAKESH 0200   73     190/  4/  4 1015.9R
PORT WASHINGTON  0230   73     230/  2/  3 1017.3S
ATWATER BUOY     0109   72 70  170/  4/  6 1016.6R
MILWAUKEE LAKESH 0230   76     180/  6/  7   N/A
S MID LAKE BUOY  0150   75 72  130/ 10/ 10 1016.7R   0
KENOSHA   LAKESH 0200   77     250/  6/  8 1016.6
$$

TC  - TEMPERATURE IN CELSIUS
VSB - VISIBILITY IN STATUTE MILES
WCI - WIND CHILL INDEX
HX  - HEAT INDEX





USA.gov is the U.S. government's official web portal to all federal, state and local government web resources and services.